Location: Mentone
(34.5413°N, 85.5351°W)
Time: 13:35:05
(UTC-05:00)

UOSAT-12 - Visible Passes

Search period start: 27 April 2015 00:00
Search period end: 07 May 2015 00:00
Orbit: 596 x 659 km, 64.6° (Epoch: 27 April)

Date Brightness Start Highest point End Pass type
(mag) Time Alt. Az. Time Alt. Az. Time Alt. Az.
27 Apr 8.4 20:53:02 10° N 20:56:51 25° NE 20:57:49 24° ENE visible
27 Apr 9.3 22:32:58 10° NW 22:35:09 22° WNW 22:35:09 22° WNW visible
28 Apr 7.2 21:12:39 10° NNW 21:17:13 56° ENE 21:17:43 53° E visible
28 Apr 10.0 22:54:54 10° W 22:55:02 10° W 22:55:02 10° W visible
29 Apr 9.1 19:54:10 10° NNE 19:56:44 15° NE 19:59:26 10° E visible
29 Apr 7.3 21:32:46 10° NW 21:37:20 60° WSW 21:37:40 58° SW visible
30 Apr 8.2 20:13:12 10° N 20:17:17 30° NE 20:20:20 15° ESE visible
30 Apr 8.8 21:53:32 10° WNW 21:57:18 24° WSW 21:57:40 24° WSW visible
01 May 7.1 20:32:56 10° NNW 20:37:34 69° ENE 20:40:24 22° SE visible
02 May 7.9 20:53:11 10° NW 20:57:38 48° WSW 21:00:33 19° S visible
03 May 9.3 21:14:10 10° WNW 21:17:34 20° WSW 21:20:47 10° SSW visible
04 May 7.1 19:53:15 10° NNW 19:57:54 85° ENE 20:02:25 10° SSE visible
05 May 8.4 20:13:37 10° NW 20:17:55 39° WSW 20:22:06 10° S visible
06 May 9.7 20:34:55 10° WNW 20:37:50 16° WSW 20:40:31 10° SSW visible
